Ogallala, NE

7:39 AM MDT on August 25, 2016 (GMT -0600)
Searle

Weather History for KOGA - October, 2012

Change the Weather History Date:

Saturday, October 6, 2012

  Actual Average Record
Temperature  
Mean Temperature 30 °F -  
Max Temperature 37 °F 68 °F 96 °F (2007)
Min Temperature 24 °F 36 °F 15 °F (1952)
Degree Days  
Heating Degree Days 34    
Moisture  
Dew Point 31 °F    
Average Humidity 93    
Maximum Humidity 97    
Minimum Humidity 85    
Precipitation  
Precipitation 0.14 in - - ()
Sea Level Pressure  
Sea Level Pressure 30.34 in    
Wind  
Wind Speed 3 mph (ENE)    
Max Wind Speed 13 mph    
Max Gust Speed -    
Visibility 6 miles    
Events Rain , Snow    
Averages and records for this station are not official NWS values.
T = Trace of Precipitation, MM = Missing Value Source: NWS Daily Summary

Daily Weather History Graph

Daily Weather History Graph

Search for Another Location

Airport or City:

Trip Planner

Search our weather history database for the weather conditions in past years. The results will help you decide how hot, cold, wet, or windy it might be!

Date:

Astronomy

Oct. 06, 2012 Rise Set
Actual Time 6:49 AM MDT 6:19 PM MDT
Civil Twilight 6:21 AM MDT 6:47 PM MDT
Nautical Twilight 5:50 AM MDT 7:19 PM MDT
Astronomical Twilight 5:18 AM MDT 7:51 PM MDT
Moon 10:34 PM MDT (10/6) 12:48 PM MDT (10/6)
Length of Visible Light 12h 25m
Length of Day
11h 30m
Waning Gibbous, 65% of the Moon is Illuminated
Oct 6
Waning Gibbous
Oct 8
Last Quarter
Oct 15
New
Oct 21
First Quarter
Oct 29
Full

Hourly Weather History & Observations

Time (MDT) Temp. Windchill Dew Point Humidity Pressure Visibility Wind Dir Wind Speed Gust Speed Precip Events Conditions
12:15 AM 34.2 °F - 32.9 °F 95% 30.32 in 7.0 mi Calm Calm - N/A   Overcast
12:55 AM 34.7 °F 29.6 °F 33.3 °F 94% 30.32 in 5.0 mi North 5.8 mph - N/A   Overcast
1:15 AM 35.6 °F 32.8 °F 34.3 °F 95% 30.32 in 10.0 mi North 3.5 mph - N/A   Overcast
1:35 AM 36.0 °F 27.5 °F 34.3 °F 94% 30.30 in 10.0 mi NNE 12.7 mph - N/A   Overcast
1:55 AM 36.9 °F - 32.9 °F 86% 30.31 in 10.0 mi Calm Calm - N/A   Mostly Cloudy
2:15 AM 35.6 °F - 32.4 °F 88% 30.32 in 10.0 mi Calm Calm - N/A   Mostly Cloudy
2:35 AM 36.9 °F - 32.7 °F 85% 30.31 in 10.0 mi Calm Calm - N/A   Scattered Clouds
2:55 AM 34.7 °F - 32.4 °F 91% 30.31 in 10.0 mi Calm Calm - N/A   Scattered Clouds
3:35 AM 34.2 °F - 32.4 °F 93% 30.30 in 10.0 mi Calm Calm - N/A   Overcast
3:55 AM 34.2 °F - 32.7 °F 94% 30.30 in 10.0 mi Calm Calm - N/A   Overcast
4:15 AM 34.7 °F 31.8 °F 32.9 °F 93% 30.30 in 10.0 mi SW 3.5 mph - N/A   Overcast
4:35 AM 34.9 °F 32.0 °F 33.1 °F 93% 30.30 in 10.0 mi WSW 3.5 mph - N/A   Overcast
4:55 AM 35.1 °F - 33.4 °F 94% 30.31 in 10.0 mi Calm Calm - N/A   Overcast
5:15 AM 35.2 °F - 33.6 °F 94% 30.32 in 10.0 mi Calm Calm - N/A   Overcast
5:35 AM 35.6 °F - 34.0 °F 94% 30.33 in 10.0 mi Calm Calm - N/A Rain Light Rain
5:55 AM 35.2 °F 31.2 °F 32.0 °F 88% 30.33 in 5.0 mi ESE 4.6 mph - N/A Snow Light Snow
6:15 AM 34.3 °F 30.2 °F 32.4 °F 92% 30.34 in 5.0 mi East 4.6 mph - N/A Snow Light Snow
6:35 AM 34.7 °F 29.6 °F 32.4 °F 91% 30.34 in 7.0 mi ENE 5.8 mph - N/A Snow Light Snow
6:55 AM 34.7 °F 28.8 °F 32.4 °F 91% 30.34 in 7.0 mi East 6.9 mph - N/A Snow Light Snow
7:15 AM 34.0 °F 29.8 °F 32.2 °F 93% 30.35 in 2.0 mi ENE 4.6 mph - 0.01 in Snow Light Snow
7:35 AM 33.8 °F 28.6 °F 32.0 °F 93% 30.35 in 1.8 mi ENE 5.8 mph - 0.01 in Snow Light Snow
7:55 AM 33.8 °F 28.6 °F 32.0 °F 93% 30.35 in 1.8 mi ENE 5.8 mph - 0.01 in Snow Light Snow
8:15 AM 34.0 °F 28.8 °F 32.4 °F 94% 30.36 in 2.5 mi ENE 5.8 mph - N/A Snow Light Snow
8:35 AM 33.8 °F 28.6 °F 32.0 °F 93% 30.36 in 1.2 mi ENE 5.8 mph - N/A Snow Light Snow
8:55 AM 33.4 °F 26.6 °F 32.0 °F 94% 30.36 in 1.0 mi ENE 8.1 mph - 0.01 in Snow Light Snow
9:15 AM 33.1 °F 28.7 °F 32.0 °F 96% 30.37 in 0.8 mi ENE 4.6 mph - 0.01 in Snow Light Snow
9:35 AM 33.1 °F 26.1 °F 32.0 °F 96% 30.37 in 0.2 mi East 8.1 mph - 0.02 in Snow Snow
9:55 AM 32.9 °F 25.9 °F 32.0 °F 96% 30.38 in 0.5 mi East 8.1 mph - 0.03 in Snow Snow
10:15 AM 32.9 °F 26.7 °F 32.0 °F 96% 30.38 in 1.0 mi East 6.9 mph - 0.01 in Snow Light Snow
10:35 AM 32.9 °F 29.8 °F 32.0 °F 96% 30.38 in 1.0 mi East 3.5 mph - 0.02 in Snow Light Snow
10:55 AM 32.5 °F 26.2 °F 31.8 °F 97% 30.38 in 0.8 mi East 6.9 mph - 0.04 in Snow Light Snow
11:15 AM 32.5 °F 27.1 °F 31.5 °F 96% 30.38 in 0.8 mi East 5.8 mph - N/A Snow Light Snow
11:35 AM 32.5 °F 26.2 °F 31.6 °F 96% 30.38 in 0.5 mi East 6.9 mph - 0.01 in Snow Snow
11:55 AM 32.5 °F 27.1 °F 31.3 °F 95% 30.39 in 1.2 mi ENE 5.8 mph - 0.02 in Snow Light Snow
12:15 PM 32.7 °F 28.3 °F 31.1 °F 94% 30.39 in 0.8 mi East 4.6 mph - N/A Snow Light Snow
12:35 PM 32.9 °F 28.5 °F 31.5 °F 94% 30.39 in 1.0 mi East 4.6 mph - N/A Snow Light Snow
12:55 PM 33.1 °F 30.0 °F 31.3 °F 93% 30.38 in 1.0 mi East 3.5 mph - 0.01 in Snow Light Snow
1:15 PM 33.1 °F - 31.5 °F 94% 30.38 in 1.0 mi Calm Calm - N/A Snow Light Snow
1:35 PM 33.1 °F 30.0 °F 31.5 °F 94% 30.38 in 1.8 mi East 3.5 mph - 0.01 in Snow Light Snow
1:55 PM 33.1 °F 30.0 °F 31.3 °F 93% 30.37 in 1.0 mi East 3.5 mph - 0.01 in Snow Light Snow
2:15 PM 33.4 °F - 31.3 °F 92% 30.37 in 2.0 mi Calm Calm - N/A Snow Light Snow
2:35 PM 33.8 °F - 31.8 °F 92% 30.36 in 1.8 mi Calm Calm - N/A Snow Light Snow
2:55 PM 34.0 °F - 31.8 °F 92% 30.36 in 1.8 mi Calm Calm - 0.01 in Snow Light Snow
3:15 PM 34.7 °F - 32.2 °F 91% 30.36 in 3.0 mi Calm Calm - N/A Snow Light Snow
3:35 PM 34.9 °F - 32.0 °F 89% 30.36 in 3.0 mi Calm Calm - N/A Rain Light Rain
3:55 PM 35.1 °F - 32.0 °F 89% 30.36 in 5.0 mi Calm Calm - N/A Rain Light Rain
4:15 PM 36.0 °F - 32.0 °F 86% 30.35 in 7.0 mi Calm Calm - N/A Rain Light Rain
4:35 PM 35.8 °F - 32.2 °F 87% 30.35 in 10.0 mi Calm Calm - N/A   Overcast
4:55 PM 36.3 °F - 32.5 °F 86% 30.35 in 10.0 mi Calm Calm - N/A   Mostly Cloudy
5:15 PM 35.8 °F - 32.2 °F 87% 30.34 in 10.0 mi Calm Calm - N/A   Scattered Clouds
5:35 PM 35.8 °F - 32.0 °F 86% 30.34 in 10.0 mi Calm Calm - N/A   Clear
5:55 PM 34.9 °F - 32.0 °F 89% 30.34 in 10.0 mi Calm Calm - N/A   Clear
6:15 PM 33.8 °F - 31.8 °F 92% 30.35 in 10.0 mi Calm Calm - N/A   Scattered Clouds
6:35 PM 33.4 °F 30.4 °F 31.8 °F 94% 30.34 in 10.0 mi West 3.5 mph - N/A   Scattered Clouds
6:55 PM 32.0 °F 28.7 °F 30.2 °F 93% 30.35 in 10.0 mi WSW 3.5 mph - N/A   Scattered Clouds
7:15 PM 32.4 °F 29.1 °F 31.1 °F 95% 30.34 in 10.0 mi SW 3.5 mph - N/A   Scattered Clouds
7:35 PM 32.2 °F 28.9 °F 30.7 °F 94% 30.34 in 10.0 mi SW 3.5 mph - N/A   Scattered Clouds
7:55 PM 32.2 °F 27.7 °F 30.2 °F 92% 30.34 in 10.0 mi WSW 4.6 mph - N/A   Scattered Clouds
8:15 PM 31.5 °F 28.1 °F 29.1 °F 91% 30.34 in 10.0 mi WSW 3.5 mph - N/A   Clear
8:35 PM 30.6 °F 27.1 °F 28.8 °F 93% 30.34 in 10.0 mi West 3.5 mph - N/A   Clear
8:55 PM 29.3 °F 25.6 °F 27.5 °F 93% 30.34 in 10.0 mi NW 3.5 mph - N/A   Clear
9:15 PM 29.1 °F 25.4 °F 27.3 °F 93% 30.34 in 10.0 mi NW 3.5 mph - N/A   Clear
9:35 PM 28.6 °F 24.8 °F 26.8 °F 93% 30.34 in 10.0 mi West 3.5 mph - N/A   Clear
9:55 PM 28.0 °F 24.2 °F 26.2 °F 93% 30.33 in 10.0 mi WSW 3.5 mph - N/A   Clear
10:15 PM 27.0 °F 20.5 °F 25.3 °F 94% 30.33 in 10.0 mi WSW 5.8 mph - N/A   Clear
10:35 PM 28.0 °F 24.2 °F 26.6 °F 94% 30.33 in 10.0 mi SW 3.5 mph - N/A   Clear
10:55 PM 26.8 °F 22.8 °F 25.3 °F 94% 30.31 in 10.0 mi WSW 3.5 mph - N/A   Clear
11:15 PM 25.9 °F - 24.3 °F 94% 30.30 in 10.0 mi Calm Calm - N/A   Clear
11:35 PM 25.7 °F 20.1 °F 24.1 °F 94% 30.30 in 10.0 mi West 4.6 mph - N/A   Clear
11:55 PM 24.8 °F - 23.2 °F 94% 30.30 in 10.0 mi Calm Calm - N/A   Clear